Date,TemperatureHighF,TemperatureAvgF,TemperatureLowF,DewpointHighF,DewpointAvgF,DewpointLowF,HumidityHigh,HumidityAvg,HumidityLow,PressureMaxIn,PressureMinIn,WindSpeedMaxMPH,WindSpeedAvgMPH,GustSpeedMaxMPH,PrecipitationSumIn
2013-1-1,52,42,34,39,35,31,91,79,59,30.26,30.18,4,1,9,0.00
2013-1-2,56,40,28,38,32,26,95,78,42,30.23,30.10,4,0,7,0.00
2013-1-3,55,40,29,40,34,27,94,80,48,30.25,30.14,2,0,8,0.00
2013-1-4,57,42,32,41,35,29,94,77,49,30.27,30.16,3,0,6,0.00
2013-1-5,56,46,36,47,42,34,94,86,68,30.25,30.06,6,1,17,0.08
2013-1-6,49,46,38,46,43,35,94,90,85,30.18,30.03,5,1,11,0.18
2013-1-7,57,44,34,48,40,31,94,86,64,30.24,30.14,4,0,7,0.01
2013-1-8,61,47,38,51,42,36,96,84,61,30.22,30.10,4,0,9,0.00
2013-1-9,54,45,39,49,41,36,94,86,78,30.13,29.98,11,1,19,0.00
2013-1-10,49,42,35,39,35,32,92,78,61,30.19,30.06,9,2,19,0.00
2013-1-11,52,40,29,40,34,27,93,79,57,30.26,30.11,7,1,18,0.00
2013-1-12,49,40,31,36,29,23,93,69,36,30.24,30.11,3,0,9,0.00
2013-1-13,49,36,25,31,25,21,91,70,34,30.26,30.15,4,1,11,0.00
2013-1-14,50,38,28,26,22,17,74,53,34,30.38,30.20,7,2,16,0.00
2013-1-15,53,38,28,32,27,23,87,67,36,30.46,30.38,4,0,9,0.00
2013-1-16,56,40,28,35,30,25,92,72,41,30.42,30.24,2,0,8,0.00
2013-1-17,62,42,29,40,34,26,93,74,39,30.25,30.12,2,0,7,0.00
2013-1-18,62,44,30,42,35,27,96,74,42,30.21,30.11,2,0,6,0.00
2013-1-19,63,44,31,43,36,28,93,74,42,30.23,30.13,2,0,6,0.00
2013-1-20,64,45,31,42,35,28,93,72,39,30.22,30.10,3,0,7,0.00
2013-1-21,64,44,29,42,35,26,93,72,37,30.17,30.06,1,0,6,0.00
2013-1-22,62,46,31,44,37,27,92,73,41,30.09,29.98,2,0,6,0.00
2013-1-23,58,50,45,50,44,39,90,81,60,30.07,29.93,2,0,10,0.07
2013-1-24,53,52,49,51,50,47,94,93,90,30.17,30.04,0,0,4,0.57
2013-1-25,64,56,52,58,53,50,96,89,76,30.17,30.03,4,0,9,0.03
2013-1-26,59,51,40,52,44,36,93,79,50,30.08,29.99,9,2,17,0.01
2013-1-27,55,46,38,42,37,33,93,75,43,30.17,30.07,5,2,14,0.01
2013-1-28,57,46,36,44,39,32,92,77,52,30.29,30.15,10,2,16,0.02
2013-1-29,57,45,35,45,39,32,93,80,55,30.35,30.25,7,1,14,0.02
2013-1-30,67,51,38,47,41,36,93,72,43,30.32,30.23,5,1,9,0.00
2013-1-31,66,51,35,46,41,31,93,71,47,30.27,30.16,3,0,7,0.00
2013-2-1,68,50,35,50,41,32,93,74,49,30.20,30.09,3,0,6,0.00
2013-2-2,58,50,43,51,46,39,93,86,76,30.27,30.19,3,0,7,0.00
2013-2-3,59,50,41,47,43,37,91,79,61,30.24,30.12,5,1,10,0.00
2013-2-4,57,45,36,50,41,33,94,86,75,30.18,30.06,3,0,7,0.00
2013-2-5,56,49,41,47,44,37,91,82,69,30.15,30.06,6,1,14,0.00
2013-2-6,59,46,33,45,38,30,93,77,53,30.18,30.11,6,1,11,0.00
2013-2-7,57,44,34,47,38,30,91,79,52,30.18,29.99,8,1,12,0.04
2013-2-8,54,44,37,43,38,32,92,80,59,30.00,29.93,5,1,11,0.03
2013-2-9,58,43,29,38,31,26,92,67,34,30.09,29.97,4,0,14,0.02
2013-2-10,61,45,30,43,34,26,89,68,41,30.11,30.00,6,1,11,0.00
2013-2-11,63,47,32,42,32,28,92,63,30,30.21,30.05,5,1,11,0.00
2013-2-12,63,47,33,43,36,28,90,68,39,30.34,30.21,6,1,11,0.00
2013-2-13,66,48,34,46,39,31,92,71,43,30.32,30.20,6,1,11,0.00
2013-2-14,70,52,37,49,40,33,93,67,40,30.23,30.13,7,2,14,0.00
2013-2-15,74,54,38,48,41,33,90,65,37,30.24,30.17,3,0,8,0.00
2013-2-16,70,53,39,50,43,35,90,71,46,30.21,30.03,3,0,8,0.00
2013-2-17,65,51,41,48,44,37,93,76,53,30.05,29.94,5,1,10,0.00
2013-2-18,52,46,37,45,39,34,92,79,63,30.04,29.96,6,1,15,0.00
2013-2-19,50,44,39,43,39,35,89,82,75,29.97,29.75,10,2,17,0.37
2013-2-20,59,45,32,43,36,29,92,72,42,30.06,29.82,6,1,14,0.03
2013-2-21,61,46,34,42,35,30,92,68,39,30.16,30.04,6,2,15,0.00
2013-2-22,64,48,33,45,37,29,90,69,39,30.25,30.16,7,1,13,0.00
2013-2-23,60,50,44,44,40,36,89,69,44,30.24,30.13,9,3,21,0.01
2013-2-24,64,51,39,40,32,28,73,52,28,30.24,30.14,9,2,16,0.01
2013-2-25,63,48,33,45,37,28,87,68,47,30.27,30.15,7,2,15,0.00
2013-2-26,68,50,35,41,34,30,91,60,26,30.20,30.11,6,2,16,0.00
2013-2-27,70,51,34,44,36,29,89,61,26,30.36,30.19,5,1,11,0.00
2013-2-28,68,53,40,53,46,36,91,76,56,30.44,30.36,8,1,14,0.00
2013-3-1,73,56,43,54,47,39,94,75,48,30.42,30.21,4,1,9,0.00
2013-3-2,72,58,46,54,49,43,92,74,52,30.22,30.04,4,0,8,0.00
2013-3-3,66,56,50,52,49,45,90,77,54,30.09,30.01,6,2,18,0.00
2013-3-4,62,52,44,49,44,38,84,77,61,30.14,30.03,8,1,16,0.00
2013-3-5,59,50,42,44,42,38,90,74,53,30.06,29.88,13,5,25,0.06
2013-3-6,59,51,42,45,42,35,91,72,51,30.05,29.88,8,2,16,0.16
2013-3-7,60,48,39,45,39,34,91,73,42,29.99,29.82,5,1,12,0.63
2013-3-8,61,50,43,50,43,39,93,78,51,30.07,29.81,10,2,20,0.77
2013-3-9,68,53,41,46,41,36,88,68,36,30.29,30.06,9,2,18,0.01
2013-3-10,72,54,37,47,39,33,90,63,30,30.33,30.22,5,1,11,0.00
2013-3-11,75,55,38,48,41,34,89,64,33,30.25,30.09,6,1,12,0.00
2013-3-12,74,57,44,54,48,40,92,73,46,30.14,30.04,5,1,10,0.00
2013-3-13,77,60,45,57,50,41,93,72,45,30.15,30.03,6,1,13,0.00
2013-3-14,72,58,47,56,49,43,92,74,43,30.15,30.07,6,1,14,0.00
2013-3-15,71,56,42,51,46,38,91,72,40,30.13,30.03,6,1,12,0.00
2013-3-16,72,57,50,53,48,43,92,75,43,30.11,30.02,8,2,15,0.00
2013-3-17,69,54,40,47,42,36,90,68,37,30.14,30.03,8,2,16,0.00
2013-3-18,67,54,39,49,43,35,91,69,50,30.12,30.01,5,1,12,0.00
2013-3-19,73,56,44,49,44,39,89,69,39,30.12,30.04,7,1,14,0.12
2013-3-20,69,58,51,55,51,45,94,80,50,30.12,30.04,7,2,15,0.18
2013-3-21,66,55,44,49,44,38,84,68,47,30.12,29.99,7,2,15,0.03
2013-3-22,71,54,41,42,36,28,88,56,21,30.09,29.99,7,3,18,0.00
2013-3-23,70,54,37,44,35,29,85,55,24,30.11,30.01,7,2,17,0.00
2013-3-24,72,54,39,49,43,35,89,68,41,30.07,29.95,7,1,13,0.00
2013-3-25,62,51,41,49,43,37,92,76,60,30.01,29.94,7,2,14,0.00
2013-3-26,69,54,44,51,45,39,88,71,50,30.00,29.91,6,1,13,0.00
2013-3-27,69,57,45,54,48,41,90,74,57,30.00,29.93,9,1,16,0.00
2013-3-28,75,62,56,56,53,50,88,72,49,30.06,29.98,8,2,13,0.01
2013-3-29,80,64,53,57,53,48,90,71,44,30.07,29.97,6,1,15,0.00
2013-3-30,75,62,55,54,50,-100,87,71,40,30.05,29.94,9,2,22,0.01
2013-3-31,71,61,53,54,51,49,90,73,48,30.04,29.97,11,3,24,0.03
2013-4-1,70,60,54,55,52,47,92,75,48,30.14,30.03,8,3,16,0.09
2013-4-2,64,52,45,53,46,41,92,83,68,30.17,30.06,4,0,9,0.01
2013-4-3,81,60,47,58,50,43,92,74,40,30.14,29.94,7,1,14,0.00
2013-4-4,70,59,52,57,52,49,92,79,61,30.10,29.98,10,3,23,0.11
2013-4-5,70,60,52,55,51,46,84,73,59,30.17,30.10,8,2,18,0.02
2013-4-6,70,58,48,57,50,44,90,77,59,30.18,30.12,7,1,15,0.00
2013-4-7,70,59,49,56,50,45,89,72,49,30.16,29.88,10,2,19,0.00
2013-4-8,68,56,48,49,40,35,86,58,32,30.00,29.81,15,8,33,0.04
2013-4-9,76,61,46,43,40,38,79,50,25,30.06,29.99,11,4,21,0.00
2013-4-10,86,68,49,56,48,40,79,53,32,30.15,30.03,10,3,20,0.00
2013-4-11,72,60,49,52,48,44,87,68,42,30.07,29.84,8,2,16,0.00
2013-4-12,76,58,42,53,46,38,90,69,40,29.91,29.81,7,1,14,0.00
2013-4-13,72,57,44,53,45,40,89,66,40,29.90,29.83,11,2,19,0.00
2013-4-14,71,56,41,46,42,36,87,62,37,29.92,29.85,12,3,20,0.00
2013-4-15,63,53,44,48,40,34,86,62,41,29.95,29.85,11,4,27,0.00
2013-4-16,69,54,37,41,36,30,84,53,24,30.12,29.95,11,3,18,0.00
2013-4-17,71,59,46,38,34,30,65,42,23,30.24,30.11,11,4,24,0.00
2013-4-18,78,59,40,48,39,33,81,51,25,30.25,30.15,7,1,13,0.00
2013-4-19,85,63,44,54,46,38,86,58,29,30.22,30.06,9,1,16,0.00
2013-4-20,82,64,47,53,48,43,88,60,28,30.09,29.96,7,2,16,0.00
2013-4-21,87,66,47,56,48,43,90,58,24,30.02,29.90,6,1,12,0.00
2013-4-22,90,69,51,54,47,38,85,51,16,29.94,29.81,7,2,15,0.00
2013-4-23,86,65,50,52,43,31,80,52,18,29.91,29.83,9,2,19,0.00
2013-4-24,73,59,45,54,49,41,91,71,51,29.94,29.82,6,2,12,0.00
2013-4-25,72,60,48,54,50,44,90,71,52,30.13,29.93,9,2,16,0.00
2013-4-26,72,60,52,55,50,47,82,71,51,30.21,30.12,7,2,13,0.00
2013-4-27,76,61,51,57,51,46,87,72,50,30.22,30.07,5,2,11,0.00
2013-4-28,80,63,52,63,52,49,89,70,45,30.08,29.86,6,1,13,0.00
2013-4-29,90,70,54,60,54,49,89,61,29,29.88,29.74,9,2,15,0.00
2013-4-30,84,66,51,55,50,45,89,59,28,29.83,29.76,7,2,15,0.00
2013-5-1,87,71,56,49,38,29,63,33,16,30.07,29.82,8,2,18,0.00
2013-5-2,93,71,50,52,45,41,80,47,17,30.12,30.04,8,2,14,0.00
2013-5-3,91,71,51,50,42,31,70,40,12,30.07,29.78,7,1,15,0.00
2013-5-4,90,68,53,55,48,42,79,53,24,29.78,29.53,11,2,25,0.00
2013-5-5,73,61,55,52,49,46,73,65,44,29.79,29.59,12,5,26,0.00
2013-5-6,73,62,52,54,50,47,84,65,46,29.94,29.79,7,2,17,0.00
2013-5-7,74,65,55,56,52,47,83,64,49,30.03,29.93,7,2,15,0.00
2013-5-8,70,60,55,57,52,48,88,76,60,30.14,30.02,8,2,15,0.00
2013-5-9,69,60,54,55,51,48,83,73,59,30.18,30.09,9,2,17,0.00
2013-5-10,71,60,54,57,50,-100,84,75,61,30.18,30.11,6,2,14,0.00
2013-5-11,85,66,53,62,54,-100,92,70,41,30.15,30.01,7,1,14,0.00
2013-5-12,81,66,52,63,55,48,91,69,48,30.12,30.02,8,2,15,0.00
2013-5-13,79,64,52,61,54,48,90,71,52,30.08,29.94,6,2,15,0.00
2013-5-14,79,63,52,59,51,45,90,66,46,30.02,29.93,8,2,15,0.00
2013-5-15,75,61,48,52,48,44,89,63,37,30.05,30.01,6,2,14,0.00
2013-5-16,74,57,52,58,36,-100,87,73,51,30.03,29.96,9,2,18,0.00
2013-5-17,72,59,46,53,44,-100,89,64,42,30.09,29.98,10,2,19,0.00
2013-5-18,76,60,43,55,48,38,88,64,40,30.13,30.07,8,2,18,0.00
2013-5-19,85,66,47,54,49,43,89,59,29,30.11,29.95,9,2,17,0.00
2013-5-20,92,68,49,56,48,39,89,56,16,29.99,29.89,8,2,17,0.00
2013-5-21,76,62,51,55,47,38,88,60,29,29.99,29.92,9,2,17,0.00
2013-5-22,71,57,47,40,37,31,69,50,26,30.00,29.91,10,4,19,0.00
2013-5-23,70,57,43,49,43,37,86,61,39,30.00,29.93,10,2,18,0.00
2013-5-24,74,58,41,51,43,36,86,60,36,30.00,29.93,10,2,22,0.00
2013-5-25,71,58,44,51,44,38,85,63,42,30.06,29.97,9,2,17,0.00
2013-5-26,76,63,53,56,52,46,83,68,39,30.13,30.05,9,3,18,0.00
2013-5-27,68,60,50,58,52,45,87,76,63,30.13,30.00,6,1,14,0.00
2013-5-28,73,64,57,59,54,47,88,72,51,30.00,29.90,10,2,19,0.01
2013-5-29,74,64,54,59,51,45,83,65,46,29.96,29.90,10,2,18,0.00
2013-5-30,77,62,46,54,48,41,90,62,37,29.98,29.92,9,2,17,0.00
2013-5-31,88,67,47,57,50,42,90,59,27,30.00,29.88,7,2,14,0.00
2013-6-1,92,71,52,59,53,46,89,58,26,29.93,29.75,7,2,13,0.00
2013-6-2,80,66,54,59,54,48,87,66,46,29.78,29.66,7,2,13,0.00
2013-6-3,80,65,52,61,53,48,87,67,47,29.84,29.70,7,2,14,0.00
2013-6-4,77,64,52,59,54,48,88,70,52,29.94,29.83,6,2,14,0.00
2013-6-5,74,64,56,58,54,50,86,72,55,29.97,29.89,8,2,14,0.00
2013-6-6,78,65,56,60,55,50,87,71,52,29.94,29.83,6,2,12,0.00
2013-6-7,87,69,55,63,57,51,91,68,43,29.88,29.70,5,1,11,0.00
2013-6-8,91,72,58,66,59,55,91,65,41,29.77,29.67,8,2,17,0.00
2013-6-9,82,67,59,63,56,51,88,68,50,29.85,29.77,11,3,23,0.00
2013-6-10,74,64,56,55,52,49,80,66,50,29.92,29.83,10,5,23,0.00
2013-6-11,75,64,56,60,56,52,85,74,56,29.96,29.88,7,2,12,0.00
2013-6-12,78,64,49,59,50,40,91,65,38,30.00,29.89,10,2,16,0.00
2013-6-13,80,62,47,54,48,43,87,63,33,30.07,29.98,8,2,15,0.00
2013-6-14,89,67,50,56,50,43,91,63,21,29.98,29.80,8,2,17,0.00
2013-6-15,75,62,50,58,53,48,93,75,53,29.99,29.82,8,2,15,0.00
2013-6-16,79,64,48,58,52,46,93,68,45,30.09,29.99,9,2,20,0.00
2013-6-17,78,64,53,60,54,49,90,70,49,30.09,30.02,9,3,17,0.00
2013-6-18,73,62,52,54,50,47,90,67,42,30.03,29.99,10,4,21,0.00
2013-6-19,76,63,49,52,48,44,87,61,39,30.04,29.98,8,3,18,0.00
2013-6-20,79,60,47,53,47,43,86,67,39,30.01,29.93,7,1,16,0.00
2013-6-21,80,76,69,55,55,54,59,49,42,29.92,29.91,5,5,14,0.00
2013-6-22,85,74,51,58,54,48,91,53,35,29.91,29.83,8,3,19,0.00
2013-6-23,74,64,56,63,58,53,93,81,65,29.88,29.79,4,1,11,0.08
2013-6-24,70,64,60,63,60,58,94,86,74,29.89,29.77,9,2,16,0.11
2013-6-25,78,69,63,65,61,56,87,76,64,29.96,29.88,9,4,21,0.02
2013-6-26,85,73,65,69,64,60,89,74,56,30.03,29.94,7,2,15,0.00
2013-6-27,87,72,60,65,61,58,95,72,39,30.05,29.98,8,2,14,0.00
2013-6-28,95,76,60,68,62,57,93,65,38,30.02,29.87,7,2,14,0.00
2013-6-29,97,76,60,67,59,56,92,62,27,29.91,29.79,8,2,15,0.00
2013-6-30,89,73,60,66,61,57,92,69,43,29.83,29.75,6,1,13,0.00
2013-7-1,93,73,60,66,61,56,92,68,39,29.82,29.79,6,1,13,0.00
2013-7-2,94,74,64,69,63,59,87,71,42,29.89,29.79,7,1,11,0.00
2013-7-3,93,73,62,68,62,59,90,71,39,29.89,29.73,5,1,10,0.00
2013-7-4,91,76,66,69,63,57,85,67,44,29.76,29.66,6,1,10,0.00
2013-7-5,77,66,56,60,56,52,86,69,54,29.79,29.71,6,2,13,0.00
2013-7-6,82,64,55,61,54,51,85,72,49,29.78,29.71,6,2,12,0.00
2013-7-7,82,65,52,61,55,49,91,72,48,29.84,29.75,7,2,13,0.00
2013-7-8,82,64,55,62,55,-100,91,75,48,29.95,29.83,7,1,12,0.00
2013-7-9,88,70,56,66,59,54,94,73,39,30.00,29.91,7,1,13,0.00
2013-7-10,80,66,58,63,56,-100,90,74,54,29.96,29.87,6,2,12,0.00
2013-7-11,79,64,57,61,56,53,88,75,53,29.93,29.86,7,2,14,0.00
2013-7-12,80,64,52,61,54,49,92,74,48,29.91,29.85,6,1,14,0.00
2013-7-13,84,67,50,61,55,48,93,69,41,29.94,29.87,7,2,13,0.00
2013-7-14,78,64,53,61,56,51,94,77,54,29.98,29.88,7,2,14,0.00
2013-7-15,76,64,57,60,55,53,86,76,56,29.91,29.81,6,2,13,0.00
2013-7-16,75,64,57,58,54,51,84,72,54,30.02,29.85,7,3,15,0.00
2013-7-17,76,65,58,60,56,53,88,74,57,30.08,30.01,7,2,13,0.00
2013-7-18,83,66,57,63,56,53,88,74,48,30.06,29.92,6,1,12,0.00
2013-7-19,83,66,56,63,57,53,92,75,48,29.95,29.81,6,1,12,0.00
2013-7-20,85,65,56,63,55,-100,91,76,48,29.85,29.71,6,1,15,0.00
2013-7-21,83,66,53,62,56,50,90,74,50,29.85,29.75,5,1,12,0.00
2013-7-22,78,66,57,63,58,54,91,78,59,29.93,29.85,5,1,10,0.00
2013-7-23,82,69,62,64,60,58,89,75,53,29.97,29.92,6,2,13,0.00
2013-7-24,86,70,58,64,59,56,93,72,39,29.96,29.88,5,1,14,0.00
2013-7-25,82,68,57,64,59,55,93,75,49,30.01,29.91,7,1,13,0.00
2013-7-26,82,65,57,63,58,54,93,80,52,30.07,29.98,0,-789,3,0.00
2013-7-27,81,67,58,63,58,55,92,76,50,30.02,29.84,0,-999,0,0.00
2013-7-28,81,66,57,62,57,53,91,75,49,29.87,29.78,6,-528,13,0.00
2013-7-29,81,64,55,60,55,51,88,73,47,29.99,29.82,7,3,18,0.00
2013-7-30,79,65,54,61,56,51,91,73,51,30.07,29.98,7,2,15,0.00
2013-7-31,79,65,56,61,55,51,90,72,49,30.07,30.00,7,2,16,0.00
2013-8-1,76,63,50,57,54,47,92,73,51,30.06,29.96,10,2,16,0.00
2013-8-2,80,63,49,61,54,47,92,75,50,29.96,29.88,7,2,13,0.00
2013-8-3,82,64,52,61,55,50,93,76,47,29.96,29.87,7,1,14,0.00
2013-8-4,77,63,57,61,55,53,89,78,55,29.99,29.92,8,2,13,0.00
2013-8-5,77,64,58,61,56,54,86,76,57,30.00,29.92,8,2,14,0.00
2013-8-6,75,64,58,60,56,54,87,76,58,30.02,29.96,8,2,15,0.00
2013-8-7,76,66,60,60,56,53,86,71,54,30.07,30.01,7,2,14,0.00
2013-8-8,78,65,59,61,57,54,84,76,56,30.02,29.91,6,2,15,0.00
2013-8-9,75,65,58,60,56,52,86,75,57,29.98,29.91,7,2,14,0.00
2013-8-10,78,65,59,62,58,54,86,77,57,30.03,29.98,8,2,14,0.00
2013-8-11,76,66,59,62,58,55,90,76,60,30.01,29.92,6,2,12,0.00
2013-8-12,83,67,56,63,58,54,94,75,50,29.97,29.91,7,2,14,0.00
2013-8-13,89,67,53,62,54,-100,94,71,30,29.96,29.88,6,1,14,0.00
2013-8-14,81,66,52,63,55,-100,93,76,49,29.97,29.91,8,2,13,0.00
2013-8-15,82,63,61,68,43,-100,93,73,59,29.94,29.89,8,2,16,0.00
2013-8-16,85,69,61,68,59,-100,93,78,50,29.97,29.92,8,2,14,0.00
2013-8-17,79,65,57,63,57,-100,93,79,57,29.97,29.87,5,1,11,0.00
2013-8-18,92,71,55,65,59,53,95,72,37,29.87,29.75,5,1,10,0.00
2013-8-19,89,68,63,67,49,-100,91,69,44,29.87,29.76,7,1,14,0.05
2013-8-20,84,69,59,64,58,-100,93,74,48,29.87,29.78,8,2,13,0.05
2013-8-21,80,65,57,62,57,53,88,75,55,29.92,29.82,8,2,13,0.00
2013-8-22,77,66,58,61,57,54,89,75,56,29.96,29.87,7,2,15,0.00
2013-8-23,76,65,58,60,57,54,89,75,57,29.91,29.81,7,2,15,0.00
2013-8-24,82,65,53,63,55,-100,94,75,50,29.89,29.83,8,2,17,0.00
2013-8-25,85,69,61,66,61,57,90,77,53,29.93,29.85,9,2,18,0.00
2013-8-26,78,68,59,62,58,52,89,72,53,29.98,29.89,7,2,15,0.00
2013-8-27,82,60,52,61,54,49,91,80,49,29.90,29.84,3,0,9,0.00
2013-8-28,82,74,65,65,63,60,88,71,52,29.93,29.85,8,3,16,0.00
2013-8-29,81,70,64,66,62,60,90,78,56,30.03,29.93,7,2,15,0.00
2013-8-30,91,72,61,66,62,58,94,75,36,30.03,29.90,7,1,14,0.00
2013-8-31,81,67,57,63,57,-100,92,74,49,29.96,29.87,8,2,14,0.00
2013-9-1,83,70,60,63,59,56,91,72,43,29.93,29.85,8,2,14,0.00
2013-9-2,82,70,64,67,63,61,89,79,58,29.94,29.86,10,2,17,0.00
2013-9-3,81,69,57,62,57,53,93,69,39,29.98,29.91,8,2,15,0.00
2013-9-4,80,67,55,61,57,52,93,72,47,30.02,29.92,9,2,18,0.00
2013-9-5,80,66,54,60,55,51,92,70,45,30.00,29.93,9,2,18,0.00
2013-9-6,91,69,51,59,54,48,90,64,33,29.98,29.79,6,1,13,0.00
2013-9-7,97,72,56,59,52,-100,84,58,23,29.84,29.75,7,1,14,0.00
2013-9-8,87,69,58,64,59,56,93,73,40,29.85,29.72,5,1,10,0.00
2013-9-9,90,70,58,66,60,56,93,72,39,29.79,29.68,6,1,11,0.00
2013-9-10,82,68,59,63,58,55,94,73,48,29.87,29.72,6,2,13,0.00
2013-9-11,77,66,56,62,57,53,90,74,56,29.96,29.86,7,2,14,0.00
2013-9-12,77,67,61,63,59,57,87,77,61,29.96,29.86,6,2,15,0.00
2013-9-13,76,66,59,62,58,55,89,78,61,29.91,29.77,7,2,14,0.00
2013-9-14,73,63,57,61,55,-100,91,78,64,29.82,29.74,7,2,14,0.00
2013-9-15,80,66,54,61,58,51,93,75,51,29.85,29.78,7,2,15,0.00
2013-9-16,82,69,58,64,59,54,90,73,53,29.88,29.77,8,2,18,0.00
2013-9-17,78,64,54,57,53,51,92,72,42,29.87,29.83,10,2,19,0.00
2013-9-18,63,55,51,53,51,48,91,85,69,29.86,29.82,1,0,5,0.00
2013-9-19,89,65,48,54,50,45,91,64,25,29.83,29.71,5,1,11,0.00
2013-9-20,79,64,50,62,55,47,91,74,54,29.85,29.75,7,2,14,0.00
2013-9-21,69,62,54,61,55,-100,93,81,67,29.89,29.79,7,2,17,0.23
2013-9-22,74,60,49,57,52,48,96,76,46,29.99,29.88,8,2,18,0.01
2013-9-23,82,64,50,62,54,48,93,74,44,30.00,29.89,6,1,12,0.00
2013-9-24,77,63,54,58,53,48,94,73,43,29.98,29.91,10,3,19,0.00
2013-9-25,71,62,55,50,47,45,80,61,42,29.92,29.82,10,4,20,0.00
2013-9-26,75,58,46,49,44,40,89,64,28,29.96,29.81,9,2,18,0.00
2013-9-27,79,60,44,46,42,39,88,59,24,30.07,29.96,5,1,10,0.00
2013-9-28,84,62,47,57,43,-100,87,57,21,30.07,29.97,5,1,13,0.00
2013-9-29,77,64,51,61,56,49,93,77,52,30.09,30.02,7,2,14,0.00
2013-9-30,78,65,54,62,58,52,94,80,56,30.06,29.94,8,2,15,0.00
2013-10-1,69,62,55,53,52,50,87,69,54,29.92,29.90,4,1,13,0.00
2013-10-2,77,60,48,55,49,45,92,70,40,29.99,29.91,7,1,16,0.00
2013-10-3,74,61,46,47,41,37,86,53,28,30.05,29.92,9,3,18,0.00
2013-10-4,81,68,57,40,36,31,51,32,21,30.06,29.94,8,3,16,0.00
2013-10-5,86,68,45,41,39,35,76,39,18,30.17,30.06,4,1,11,0.00
2013-10-6,85,64,45,45,42,38,77,48,21,30.09,29.97,6,1,11,0.00
2013-10-7,83,63,48,50,42,32,79,51,16,29.97,29.85,6,1,13,0.00
2013-10-8,76,59,45,53,46,40,85,64,36,29.89,29.71,5,1,11,0.00
2013-10-9,69,57,48,50,47,43,89,71,46,29.73,29.61,5,1,12,0.00
2013-10-10,73,58,47,53,47,41,89,71,39,29.99,29.73,5,1,11,0.00
2013-10-11,68,54,45,55,49,43,93,82,58,30.07,29.96,5,1,11,0.00
2013-10-12,71,54,45,54,46,-100,94,77,49,29.98,29.89,5,1,12,0.00
2013-10-13,74,57,43,52,46,41,93,69,38,30.04,29.91,7,1,13,0.00
2013-10-14,79,58,43,48,43,40,90,63,28,30.09,29.96,5,1,10,0.00
2013-10-15,80,61,43,44,41,38,86,53,24,30.02,29.91,6,1,13,0.00
2013-10-16,83,61,44,46,41,38,83,54,24,30.06,29.97,5,1,12,0.00
2013-10-17,81,61,45,48,41,37,80,54,21,30.05,29.93,5,1,11,0.00
2013-10-18,79,58,43,50,44,37,85,64,28,30.03,29.95,5,0,9,0.00
2013-10-19,80,57,43,55,46,-100,91,73,38,30.06,29.96,4,0,8,0.00
2013-10-20,74,57,46,55,50,43,93,78,47,30.01,29.88,4,1,8,0.00
2013-10-21,70,56,49,55,51,46,94,84,55,29.99,29.88,3,0,8,0.00
2013-10-22,72,57,47,56,51,45,95,83,56,30.01,29.90,4,0,8,0.00
2013-10-23,67,56,52,56,52,49,94,86,66,29.96,29.88,3,0,8,0.00
2013-10-24,61,54,49,52,50,46,91,85,72,30.06,29.96,3,0,8,0.00
2013-10-25,70,58,49,54,50,46,94,77,55,30.15,30.06,4,1,9,0.00
2013-10-26,76,55,43,55,46,-100,95,78,42,30.13,29.98,4,0,8,0.00
2013-10-27,65,54,46,53,48,44,94,82,59,30.02,29.70,8,2,18,0.00
2013-10-28,63,55,50,49,45,-100,84,71,52,29.84,29.67,9,2,21,0.00
2013-10-29,63,54,45,50,47,42,91,76,60,30.03,29.84,6,1,11,0.00
2013-10-30,67,52,40,50,44,38,94,77,48,30.13,30.03,4,1,10,0.00
2013-10-31,72,53,41,49,44,39,93,75,40,30.16,30.03,4,0,9,0.00
2013-11-1,77,56,42,48,44,40,93,68,32,30.12,29.98,3,0,7,0.00
2013-11-2,71,54,42,54,45,-100,90,75,48,30.01,29.90,5,1,12,0.00
2013-11-3,65,51,41,47,40,32,94,71,31,30.02,29.90,6,1,15,0.00
2013-11-4,67,51,37,44,37,32,92,64,28,30.03,29.90,6,2,14,0.00
2013-11-5,73,57,41,40,37,34,78,51,27,30.20,30.03,6,2,14,0.00
2013-11-6,72,53,41,45,40,37,86,64,30,30.23,30.13,3,0,6,0.00
2013-11-7,74,55,44,48,44,40,88,68,30,30.15,30.05,4,0,11,0.00
2013-11-8,70,54,44,54,47,41,94,78,48,30.07,29.94,4,1,8,0.00
2013-11-9,75,52,41,52,43,-100,94,77,29,30.02,29.93,3,0,11,0.00
2013-11-10,65,52,42,52,47,40,92,84,60,30.11,30.01,4,0,10,0.00
2013-11-11,66,57,48,53,50,46,93,79,56,30.14,30.05,3,0,7,0.00
2013-11-12,71,59,48,54,50,44,88,72,42,30.24,30.13,5,1,9,0.00
2013-11-13,74,56,43,56,48,41,93,79,44,30.23,30.09,5,1,10,0.00
2013-11-14,65,55,46,55,51,44,96,87,69,30.10,29.89,3,0,8,0.00
2013-11-15,65,52,40,49,43,38,95,77,43,29.88,29.71,5,1,10,0.00
2013-11-16,63,49,39,50,41,-100,93,78,48,29.92,29.77,6,1,13,0.00
2013-11-17,63,50,40,50,45,38,95,83,60,30.07,29.92,5,0,10,0.00
2013-11-18,60,49,40,49,44,38,95,84,64,30.12,30.05,4,0,9,0.00
2013-11-19,65,56,45,54,50,43,94,82,64,30.09,29.93,6,1,12,0.28
2013-11-20,63,57,52,58,54,51,95,92,80,29.93,29.83,6,2,15,0.51
2013-11-21,61,54,50,51,41,30,96,66,34,29.97,29.88,7,2,17,0.02
2013-11-22,67,54,43,36,28,23,73,37,23,30.01,29.87,7,2,13,0.01
2013-11-23,65,49,37,41,36,-100,88,66,35,30.08,29.93,2,0,6,0.00
2013-11-24,64,48,36,46,40,34,92,75,44,30.23,30.08,3,0,8,0.00
2013-11-25,65,48,37,46,41,35,94,78,46,30.30,30.22,3,0,7,0.00
2013-11-26,62,50,39,47,43,37,92,78,52,30.24,30.02,2,0,7,0.00
2013-11-27,64,52,39,50,44,37,94,78,56,30.01,29.80,4,0,8,0.00
2013-12-8,45,36,29,32,26,22,92,69,43,30.30,30.20,6,1,13,0.00
2013-12-9,49,36,25,26,22,19,85,60,32,30.39,30.29,4,1,9,0.00
2013-12-10,52,37,25,31,27,22,89,69,40,30.38,30.18,3,0,6,0.00
2013-12-11,55,40,29,34,30,26,88,69,39,30.22,30.15,4,0,8,0.00
2013-12-12,58,39,28,35,30,25,91,74,36,30.24,30.14,2,0,6,0.00
2013-12-13,59,42,30,43,35,27,92,77,46,30.32,30.22,4,0,9,0.00
2013-12-14,60,43,31,41,33,-100,92,73,44,30.37,30.28,3,0,7,0.00
2013-12-15,61,43,31,40,34,29,92,76,45,30.35,30.22,3,0,5,0.00
2013-12-16,66,46,34,41,36,31,91,72,38,30.22,30.09,3,0,6,0.00
2013-12-17,64,47,36,42,38,33,89,73,44,30.15,30.01,2,0,5,0.00
2013-12-18,62,49,41,47,42,38,92,79,52,30.00,29.78,5,0,9,0.00
2013-12-19,58,47,38,44,38,27,94,72,43,29.91,29.72,7,2,14,0.00
2013-12-20,59,44,31,27,23,13,77,49,16,29.99,29.91,5,1,12,0.00
2013-12-21,60,45,34,47,35,-100,91,73,61,30.06,29.94,4,1,12,0.00
2013-12-22,66,49,34,47,38,32,94,71,37,30.26,30.06,6,1,10,0.00
2013-12-27,59,45,33,45,37,30,90,77,54,30.21,30.09,2,0,6,0.00
2013-12-28,65,45,32,43,33,-100,93,69,31,30.12,30.00,3,0,10,0.00
2013-12-29,65,50,34,34,30,27,82,53,25,30.15,30.06,3,0,8,0.00
2013-12-30,65,46,32,38,33,27,85,65,34,30.23,30.15,2,0,6,0.00
2013-12-31,59,46,34,45,38,29,93,76,49,30.25,30.12,5,0,12,0.00
2014-1-1,61,45,32,43,36,29,90,73,41,30.19,30.10,3,0,6,0.00
2014-1-2,65,47,34,43,37,31,89,70,40,30.15,30.02,3,0,7,0.00